Houston Hull, TX

12:45 PM CST on December 06, 2019 (GMT -0600)
Sugar Land Municipal-Hull

Weather History for KSGR - October, 2019

Change the Weather History Date:

Tuesday, October 22, 2019

  Actual Average Record
Temperature  
Mean Temperature 67 °F -  
Max Temperature 81 °F 79 °F 91 °F (1949)
Min Temperature 54 °F 57 °F 39 °F (1976)
Cooling Degree Days 2    
Growing Degree Days 17 (Base 50)    
Moisture  
Dew Point 45 °F    
Average Humidity 51    
Maximum Humidity 77    
Minimum Humidity 20    
Precipitation  
Precipitation 0.00 in - - ()
Sea Level Pressure  
Sea Level Pressure 30.13 in    
Wind  
Wind Speed 6 mph (ENE)    
Max Wind Speed 15 mph    
Max Gust Speed -    
Visibility 10 miles    
Events      
Averages and records for this station are not official NWS values.
T = Trace of Precipitation, MM = Missing Value Source: NWS Daily Summary

Daily Weather History Graph

Daily Weather History Graph

Search for Another Location

Airport or City:

Astronomy

Oct. 22, 2019 Rise Set
Actual Time 7:28 AM CDT 6:45 PM CDT
Civil Twilight 7:04 AM CDT 7:09 PM CDT
Nautical Twilight 6:36 AM CDT 7:37 PM CDT
Astronomical Twilight 6:08 AM CDT 8:04 PM CDT
Moon 1:16 AM CDT (10/22) 3:20 PM CDT (10/22)
Length of Visible Light 12h 04m
Length of Day
11h 16m
Last Quarter, 37% of the Moon is Illuminated
Oct 22
Last Quarter
Oct 27
New
Nov 4
First Quarter
Nov 12
Full
Nov 19
Last Quarter

Hourly Weather History & Observations

Time (CDT) Temp. Dew Point Humidity Pressure Visibility Wind Dir Wind Speed Gust Speed Precip Events Conditions
12:53 AM 59.0 °F 50.0 °F 72% 30.05 in 10.0 mi North 5.8 mph - N/A   Clear
1:53 AM 57.0 °F 48.9 °F 74% 30.06 in 10.0 mi North 6.9 mph - N/A   Clear
2:53 AM 59.0 °F 48.0 °F 67% 30.06 in 10.0 mi NNE 6.9 mph - N/A   Clear
3:53 AM 55.9 °F 46.9 °F 72% 30.07 in 10.0 mi NNE 6.9 mph - N/A   Clear
4:53 AM 57.0 °F 48.0 °F 72% 30.09 in 10.0 mi NE 4.6 mph - N/A   Clear
5:53 AM 54.0 °F 46.0 °F 75% 30.11 in 10.0 mi NE 3.5 mph - N/A   Clear
6:53 AM 55.9 °F 46.0 °F 69% 30.13 in 10.0 mi ENE 4.6 mph - N/A   Clear
7:53 AM 54.0 °F 46.9 °F 77% 30.14 in 10.0 mi Calm Calm - N/A   Clear
8:53 AM 62.1 °F 48.9 °F 62% 30.17 in 10.0 mi NE 4.6 mph - N/A   Clear
9:53 AM 70.0 °F 48.0 °F 46% 30.20 in 10.0 mi NE 5.8 mph - N/A   Clear
10:53 AM 75.0 °F 43.0 °F 32% 30.21 in 10.0 mi NE 12.7 mph - N/A   Clear
11:53 AM 78.1 °F 37.0 °F 23% 30.22 in 10.0 mi East 11.5 mph - N/A   Clear
12:53 PM 79.0 °F 37.0 °F 22% 30.20 in 10.0 mi East 15.0 mph - N/A   Clear
1:53 PM 80.1 °F 36.0 °F 20% 30.17 in 10.0 mi ENE 10.4 mph - N/A   Clear
2:53 PM 80.1 °F 41.0 °F 25% 30.14 in 10.0 mi NE 11.5 mph - N/A   Clear
3:53 PM 80.1 °F 39.9 °F 24% 30.14 in 10.0 mi NE 6.9 mph - N/A   Clear
4:53 PM 79.0 °F 41.0 °F 26% 30.12 in 10.0 mi NNE 5.8 mph - N/A   Clear
5:53 PM 77.0 °F 42.1 °F 29% 30.12 in 10.0 mi East 5.8 mph - N/A   Clear
6:53 PM 73.0 °F 43.0 °F 34% 30.13 in 10.0 mi ENE 6.9 mph - N/A   Clear
7:53 PM 70.0 °F 45.0 °F 41% 30.12 in 10.0 mi ENE 6.9 mph - N/A   Clear
8:53 PM 69.1 °F 45.0 °F 42% 30.13 in 10.0 mi East 5.8 mph - N/A   Clear
9:53 PM 57.0 °F 50.0 °F 77% 30.13 in 10.0 mi SE 4.6 mph - N/A   Clear
10:53 PM 57.9 °F 50.0 °F 75% 30.14 in 10.0 mi East 3.5 mph - N/A   Clear
11:53 PM 64.0 °F 48.0 °F 56% 30.13 in 10.0 mi ESE 4.6 mph - N/A   Clear